Find Hainan-1 01

NORAD ID: 51825 Int'l Des: NNA 2022-019 Owner: SANYZ Country: CN operational
LEOCIRCULARRETROGRADESSO

当前视图

正在加载3D地球...

About Hainan-1 01

Hainan-1 01 (NORAD 51825) is a satellite launched Feb 27, 2022 by SANYZ of CN. It operates in LEO, CIRCULAR, RETROGRADE, SSO orbit with a mass of 55.00 kg.

即将过境

Passes for default location (London). Set your location on the main map for personalized predictions.

高度历史

Loading altitude history...

两行轨道根数

1 51825U 22019B 26194.79427808 .00108012 00000-0 51137-3 0 9994
2 51825 97.3463 288.6505 0000975 322.8373 37.2829 15.82698534243964
Epoch: Jul 13, 2026 • Age: 17 hours

当前状态

高度 327.0 km
远地点 / 近地点 N/A
速度 7.72 km/s
星下点 34.84°N, 173.4°E
发射日期 Feb 27, 2022
运行时间 4.3 years
类型 other

技术详情

分类 Payload
质量 55.00 kg
干质量 55.00 kg
总质量 55.00 kg
长度 0.50 m
直径 0.50 m
跨度 2.00 m
形状 Box + 2 pan
制造商 DFHS
平台类型 Hainan-1
阶段状态 In Orbit
所有者/国家 SANYZ/CN

Most Searched